TimeEDT,TemperatureF,Dew PointF,Humidity,Sea Level PressureIn,VisibilityMPH,Wind Direction,Wind SpeedMPH,Gust SpeedMPH,PrecipitationIn,Events,Conditions,WindDirDegrees,DateUTC
12:53 AM,61.0,53.1,75,30.12,10.0,SSE,6.9,-,N/A,,Clear,150,2012-10-04 04:53:00
1:53 AM,62.1,53.1,72,30.12,10.0,South,8.1,-,N/A,,Clear,180,2012-10-04 05:53:00
2:53 AM,62.1,53.1,72,30.12,10.0,SSE,8.1,-,N/A,,Clear,160,2012-10-04 06:53:00
3:53 AM,61.0,53.1,75,30.12,10.0,South,8.1,-,N/A,,Clear,170,2012-10-04 07:53:00
4:53 AM,62.1,52.0,70,30.11,10.0,South,8.1,-,N/A,,Clear,180,2012-10-04 08:53:00
5:53 AM,62.1,52.0,70,30.11,10.0,South,9.2,-,N/A,,Clear,180,2012-10-04 09:53:00
6:53 AM,61.0,52.0,72,30.13,10.0,South,6.9,-,N/A,,Clear,190,2012-10-04 10:53:00
7:53 AM,61.0,51.1,70,30.13,10.0,South,10.4,-,N/A,,Clear,180,2012-10-04 11:53:00
8:53 AM,61.0,51.1,70,30.14,10.0,South,9.2,18.4,N/A,,Clear,170,2012-10-04 12:53:00
9:53 AM,64.9,52.0,63,30.13,10.0,South,10.4,-,N/A,,Clear,190,2012-10-04 13:53:00
10:53 AM,69.1,52.0,54,30.13,10.0,SW,6.9,16.1,N/A,,Clear,220,2012-10-04 14:53:00
11:53 AM,71.1,54.0,55,30.12,10.0,SW,11.5,20.7,N/A,,Clear,230,2012-10-04 15:53:00
12:53 PM,72.0,55.0,55,30.12,10.0,SW,16.1,-,N/A,,Clear,230,2012-10-04 16:53:00
1:53 PM,70.0,54.0,57,30.10,10.0,WSW,12.7,-,N/A,,Scattered Clouds,250,2012-10-04 17:53:00
2:53 PM,66.0,57.9,75,30.10,10.0,WNW,9.2,-,N/A,,Mostly Cloudy,300,2012-10-04 18:53:00
3:53 PM,68.0,59.0,73,30.09,10.0,WSW,5.8,-,N/A,,Overcast,240,2012-10-04 19:53:00
4:53 PM,69.1,57.9,68,30.09,10.0,West,6.9,-,N/A,,Clear,270,2012-10-04 20:53:00
6:53 PM,66.9,53.1,61,30.08,10.0,SW,6.9,-,N/A,,Clear,220,2012-10-04 22:53:00
7:53 PM,69.1,53.1,57,30.08,10.0,South,6.9,-,N/A,,Clear,180,2012-10-04 23:53:00
8:53 PM,66.9,53.1,61,30.07,10.0,SSE,6.9,-,N/A,,Clear,160,2012-10-05 00:53:00
9:53 PM,66.0,52.0,60,30.06,10.0,South,8.1,-,N/A,,Clear,170,2012-10-05 01:53:00
10:53 PM,64.9,52.0,63,30.06,10.0,South,9.2,-,N/A,,Clear,170,2012-10-05 02:53:00
11:53 PM,64.9,53.1,65,30.06,10.0,South,10.4,-,N/A,,Clear,190,2012-10-05 03:53:00